WZ9ZZZ-1 Weather Reports


time (UTC)temp
C
wind
direction
speed
KPH
gust
KPH
rain 1hr
cm
rain 24hr
cm
rain mn
cm
humidity
%
barometer
mb
20260502182658 23 93 14.5 22.5 0.00 0.00 0.00 51 1022.8
20260502182153 23 86 8.0 14.5 0.00 0.00 0.00 52 1023.1
20260502181651 23 101 0.0 1.6 0.00 0.00 0.00 53 1023.3
20260502181150 23 97 8.0 12.9 0.00 0.00 0.00 50 1023.2
20260502180647 23 94 3.2 4.8 0.00 0.00 0.00 52 1023.5
20260502180144 23 117 4.8 9.7 0.00 0.00 0.00 51 1023.6
20260502170108 21 96 4.8 8.0 0.00 0.00 0.00 58 1023.5
20260502164055 21 113 0.0 3.2 0.00 0.00 0.00 61 1023.4
20260502163550 21 65 3.2 8.0 0.00 0.00 0.00 61 1023.4
20260502163048 21 117 6.4 9.7 0.00 0.00 0.00 62 1023.5
20260502162544 21 100 12.9 17.7 0.00 0.00 0.00 60 1023.5
20260502162042 22 79 4.8 4.8 0.00 0.00 0.00 64 1023.5
20260502161538 21 85 8.0 12.9 0.00 0.00 0.00 64 1023.3
20260502161036 21 98 8.0 11.3 0.00 0.00 0.00 64 1023.3
20260502160534 20 101 8.0 16.1 0.00 0.00 0.00 65 1023.3
20260502151941 19 55 1.6 4.8 0.00 0.00 0.00 72 1023.3
20260502151438 18 79 4.8 8.0 0.00 0.00 0.00 71 1023.2
20260502150935 18 73 6.4 11.3 0.00 0.00 0.00 73 1023.0
20260502150432 18 95 4.8 8.0 0.00 0.00 0.00 74 1023.1
20260502130318 14 100 3.2 4.8 0.00 0.00 0.00 88 1022.2
20260502123803 13 62 3.2 8.0 0.00 0.00 0.00 89 1021.6
20260502123300 13 105 1.6 3.2 0.00 0.00 0.00 89 1021.6
20260502122757 13 92 1.6 1.6 0.00 0.00 0.00 89 1021.5
20260502122253 12 99 3.2 3.2 0.00 0.00 0.00 90 1021.4
20260502121751 12 113 4.8 8.0 0.00 0.00 0.00 90 1021.3
20260502121249 12 117 3.2 3.2 0.00 0.00 0.00 90 1021.3
20260502120745 12 89 3.2 3.2 0.00 0.00 0.00 90 1021.3
20260502120242 12 112 0.0 1.6 0.00 0.00 0.00 90 1021.3
20260502115740 12 108 3.2 4.8 0.00 0.00 0.00 90 1021.3
20260502115237 12 69 4.8 8.0 0.00 0.00 0.00 89 1021.1
20260502114732 12 89 1.6 3.2 0.00 0.00 0.00 89 1021.0
20260502114230 12 68 8.0 11.3 0.00 0.00 0.00 89 1021.0
20260502113727 12 83 4.8 4.8 0.00 0.00 0.00 89 1021.1
20260502113224 12 97 3.2 4.8 0.00 0.00 0.00 89 1020.9
20260502112722 12 87 4.8 9.7 0.00 0.00 0.00 89 1020.8
20260502112220 12 102 4.8 8.0 0.00 0.00 0.00 88 1020.9
20260502111717 12 103 1.6 3.2 0.00 0.00 0.00 88 1020.8
20260502111214 12 96 8.0 11.3 0.00 0.00 0.00 88 1020.9
20260502110712 12 110 1.6 1.6 0.00 0.00 0.00 88 1020.7
20260502110209 12 98 1.6 1.6 0.00 0.00 0.00 88 1020.5
20260502105707 12 91 1.6 1.6 0.00 0.00 0.00 88 1020.6
20260502105203 12 115 1.6 3.2 0.00 0.00 0.00 88 1020.5
20260502104701 12 91 4.8 8.0 0.00 0.00 0.00 87 1020.2
20260502104158 12 130 1.6 1.6 0.00 0.00 0.00 87 1020.2
20260502103655 12 67 4.8 9.7 0.00 0.00 0.00 87 1020.1
20260502103153 12 97 3.2 3.2 0.00 0.00 0.00 87 1020.2
20260502102650 12 123 3.2 4.8 0.00 0.00 0.00 87 1020.1
20260502102147 12 99 4.8 4.8 0.00 0.00 0.00 86 1019.7
20260502101645 12 74 1.6 3.2 0.00 0.00 0.00 86 1019.8
20260502101143 12 82 6.4 9.7 0.00 0.00 0.00 86 1019.5
20260502100641 12 89 4.8 9.7 0.00 0.00 0.00 86 1019.5
20260502100139 12 109 3.2 4.8 0.00 0.00 0.00 86 1019.5
20260502091113 12 88 6.4 8.0 0.00 0.00 0.00 88 1018.9
20260502090610 12 92 8.0 11.3 0.00 0.00 0.00 88 1018.8
20260502090107 12 121 4.8 8.0 0.00 0.00 0.00 87 1019.0
20260502071504 13 92 1.6 4.8 0.00 0.00 0.00 95 1018.9
20260502071003 13 75 6.4 9.7 0.00 0.00 0.00 95 1018.7
20260502070500 13 103 11.3 14.5 0.00 0.00 0.00 95 1018.6
20260502065958 13 94 8.0 11.3 0.00 0.00 0.00 96 1018.5
20260502065456 13 84 4.8 8.0 0.00 0.00 0.00 96 1018.7
20260502064954 13 90 11.3 12.9 0.00 0.00 0.00 96 1018.7
20260502064452 13 113 6.4 11.3 0.00 0.00 0.00 96 1018.5
20260502063949 13 48 11.3 16.1 0.00 0.00 0.00 96 1018.6
20260502063447 13 92 8.0 16.1 0.00 0.00 0.00 97 1018.5
20260502062944 13 93 6.4 11.3 0.00 0.00 0.00 97 1018.4
20260502062441 12 78 3.2 9.7 0.00 0.00 0.00 97 1018.4
20260502061940 12 67 3.2 3.2 0.00 0.00 0.00 97 1018.2
20260502061437 13 76 4.8 8.0 0.00 0.00 0.00 97 1018.4
20260502060933 13 76 8.0 14.5 0.00 0.00 0.00 97 1018.1
20260502060428 12 111 1.6 3.2 0.00 0.00 0.00 98 1018.4
20260502055925 13 104 6.4 9.7 0.00 0.00 0.00 98 1018.3
20260502055424 12 60 4.8 12.9 0.00 0.00 0.00 98 1018.5
20260502054923 12 95 12.9 20.9 0.00 0.00 0.00 98 1018.3
20260502054420 13 138 8.0 11.3 0.00 0.00 0.00 98 1018.6
20260502053918 12 106 8.0 16.1 0.00 0.00 0.00 98 1018.9
20260502053415 12 103 3.2 3.2 0.00 0.00 0.00 98 1018.9
20260502052912 12 87 8.0 14.5 0.00 0.00 0.00 98 1018.7
20260502052411 12 87 6.4 12.9 0.00 0.00 0.00 98 1018.8
20260502051908 12 85 14.5 37.0 0.00 0.00 0.00 98 1018.4
20260502051406 12 112 3.2 11.3 0.00 0.00 0.00 98 1018.4
20260502050903 12 80 4.8 8.0 0.00 0.00 0.00 98 1018.8
20260502050359 12 106 3.2 8.0 0.00 0.00 0.00 98 1018.8
20260502045856 12 42 4.8 11.3 0.00 10.03 10.03 98 1018.8
20260502045353 12 97 4.8 8.0 0.00 10.03 10.03 98 1018.7
20260502044850 12 112 4.8 9.7 0.00 10.03 10.03 98 1018.6
20260502044346 12 59 4.8 9.7 0.00 10.03 10.03 98 1018.8
20260502043843 12 87 1.6 1.6 0.00 10.03 10.03 98 1018.7
20260502043340 12 130 1.6 3.2 0.00 10.03 10.03 98 1018.8
20260502042834 12 83 8.0 9.7 0.00 10.03 10.03 98 1018.7
20260502042332 12 85 4.8 8.0 0.00 10.03 10.03 98 1018.7
20260502041829 12 103 1.6 4.8 0.00 10.03 10.03 98 1018.5
20260502041326 12 85 3.2 4.8 0.00 10.03 10.03 98 1018.4
20260502040823 13 81 8.0 9.7 0.18 10.03 10.03 98 1018.4
20260502040320 13 105 3.2 9.7 0.18 10.03 10.03 98 1018.1
20260502035816 13 88 11.3 12.9 0.00 10.01 10.01 98 1017.9
20260502035313 13 98 4.8 8.0 0.00 10.01 10.01 98 1017.8
20260502034810 13 94 1.6 3.2 0.00 10.01 10.01 98 1017.9
20260502034309 13 72 4.8 11.3 0.00 10.01 10.01 98 1018.1
20260502033806 13 102 3.2 4.8 0.00 10.01 10.01 98 1017.9
20260502033303 13 92 1.6 3.2 0.00 10.01 10.01 98 1017.2
20260502032800 13 67 3.2 9.7 0.00 10.01 10.01 98 1017.3
20260502032257 13 90 3.2 3.2 0.00 10.01 10.01 98 1017.5
20260502031754 13 64 9.7 14.5 0.13 10.01 10.01 98 1016.8
20260502031253 13 105 3.2 4.8 0.13 10.01 10.01 98 1016.6
20260502030751 13 109 9.7 17.7 0.18 9.98 9.98 98 1016.3
20260502030248 13 105 0.0 1.6 0.18 9.98 9.98 98 1016.2
20260502025746 13 79 0.0 1.6 0.18 9.96 9.96 98 1016.6
20260502025244 14 99 4.8 9.7 0.18 9.96 9.96 98 1016.9
20260502024741 14 74 0.0 3.2 0.13 9.93 9.93 98 1017.0
20260502024239 14 70 4.8 8.0 0.13 9.93 9.93 98 1016.9
20260502023736 14 69 3.2 3.2 0.00 9.91 9.91 98 1016.9
20260502023233 14 88 8.0 11.3 0.00 9.91 9.91 98 1016.7
20260502022726 14 56 3.2 3.2 0.18 9.91 9.91 98 1016.9
20260502022222 14 95 1.6 1.6 0.18 9.91 9.91 98 1016.6
20260502021719 14 57 3.2 3.2 0.00 9.88 9.88 98 1016.6
20260502021217 14 102 3.2 4.8 0.13 9.88 9.88 98 1016.7
20260502020713 14 97 1.6 1.6 0.13 9.88 9.88 98 1016.9
20260502020210 14 127 1.6 1.6 0.00 9.86 9.86 98 1016.6
20260502015708 14 100 1.6 3.2 0.00 9.86 9.86 98 1016.4
20260502015204 14 107 1.6 3.2 0.18 9.86 9.86 98 1016.3
20260502014702 15 87 1.6 1.6 0.30 9.86 9.86 98 1016.1
20260502014159 15 74 0.0 1.6 0.43 9.83 9.83 98 1016.0
20260502013655 15 112 1.6 1.6 0.48 9.80 9.80 98 1016.0
20260502013150 15 109 0.0 1.6 0.30 9.78 9.78 98 1015.8
20260502012648 15 79 1.6 3.2 0.13 9.73 9.73 98 1015.5
20260502012146 15 104 1.6 3.2 0.13 9.73 9.73 98 1015.5
20260502011642 15 124 3.2 4.8 0.00 9.70 9.70 98 1015.5
20260502011138 15 99 0.0 0.0 0.00 9.70 9.70 98 1014.9
20260502010636 15 77 11.3 14.5 0.18 9.70 9.70 98 1014.2
20260502010132 15 81 6.4 9.7 0.48 9.70 9.70 98 1013.9
20260502005630 15 67 9.7 16.1 0.48 9.68 9.68 98 1013.9
20260502005127 15 67 1.6 4.8 0.48 9.63 9.63 98 1014.0
20260502004622 15 102 4.8 9.7 0.89 9.60 9.60 98 1014.3
20260502004120 15 92 9.7 12.9 1.02 9.55 9.55 98 1014.1
20260502003618 15 40 4.8 9.7 1.07 9.47 9.47 98 1014.5
20260502003114 15 111 1.6 4.8 1.07 9.37 9.37 98 1014.5
20260502002610 15 105 4.8 11.3 1.19 9.30 9.30 98 1014.3
20260502002108 15 76 9.7 14.5 0.61 9.19 9.19 98 1014.0
20260502001606 15 94 1.6 3.2 0.30 9.12 9.12 98 1013.9
20260502001102 15 105 4.8 8.0 0.18 9.09 9.09 98 1013.5
20260502000601 15 87 11.3 17.7 0.00 9.07 9.07 98 1013.8
20260502000058 15 109 4.8 8.0 0.00 9.07 9.07 98 1013.8
20260501235554 15 106 3.2 8.0 0.00 9.07 9.07 98 1014.2
20260501235050 15 96 1.6 4.8 0.00 9.07 9.07 98 1014.0
20260501234545 15 99 4.8 11.3 0.13 9.07 9.07 98 1014.0
20260501234044 15 67 3.2 4.8 0.00 9.04 9.04 98 1013.9
20260501233541 15 80 6.4 11.3 0.00 9.04 9.04 98 1013.4
20260501233038 15 81 4.8 8.0 0.00 9.04 9.04 98 1012.8
20260501232534 15 67 3.2 8.0 0.00 9.04 9.04 98 1012.7
20260501232032 15 92 8.0 9.7 0.00 9.04 9.04 98 1012.9
20260501231529 15 61 4.8 8.0 0.18 9.04 9.04 98 1012.7
20260501231028 15 81 3.2 4.8 0.18 9.04 9.04 98 1013.0
20260501230526 15 83 8.0 11.3 0.00 9.02 9.02 98 1013.1
20260501230023 15 98 0.0 1.6 0.00 9.02 9.02 98 1013.2
20260501225521 16 69 6.4 12.9 0.00 9.02 9.02 98 1013.6
20260501225016 15 90 4.8 4.8 0.00 9.02 9.02 98 1013.5
20260501224514 16 85 17.7 24.1 0.18 9.02 9.02 98 1013.4
20260501224011 15 96 11.3 14.5 0.18 9.02 9.02 98 1013.4
20260501223508 16 84 8.0 12.9 0.00 8.99 8.99 98 1013.5
20260501223004 16 83 4.8 9.7 0.00 8.99 8.99 98 1013.6
20260501222500 16 104 11.3 14.5 0.00 8.99 8.99 98 1013.8
20260501221956 16 78 3.2 4.8 0.00 8.99 8.99 98 1013.9
20260501221454 16 107 9.7 14.5 0.00 8.99 8.99 98 1013.9
20260501220952 16 91 6.4 11.3 0.00 8.99 8.99 98 1014.2
20260501220449 16 98 0.0 1.6 0.00 8.99 8.99 98 1014.0
20260501215944 16 97 4.8 8.0 0.13 8.99 8.99 98 1013.8
20260501215442 16 83 11.3 16.1 0.13 8.99 8.99 98 1013.9
20260501214937 16 90 4.8 8.0 0.18 8.97 8.97 98 1014.1
20260501214433 16 115 11.3 12.9 0.48 8.97 8.97 98 1013.5
20260501213928 16 82 3.2 9.7 1.19 8.94 8.94 98 1013.2
20260501213426 16 100 12.9 16.1 1.37 8.89 8.89 98 1011.6
20260501212921 16 109 9.7 12.9 0.89 8.74 8.74 98 1013.2
20260501212418 16 112 4.8 8.0 0.89 8.66 8.66 98 1014.0
20260501211915 16 110 4.8 4.8 0.79 8.59 8.59 98 1013.3
20260501211412 16 90 4.8 9.7 0.61 8.51 8.51 98 1013.2
20260501210910 16 83 16.1 22.5 0.61 8.46 8.46 98 1013.2
20260501210406 16 90 3.2 4.8 0.61 8.41 8.41 98 1013.7
20260501205903 17 61 1.6 4.8 0.61 8.36 8.36 98 1013.4
20260501205400 17 98 6.4 9.7 0.89 8.31 8.31 98 1013.3
20260501204857 17 101 11.3 14.5 0.89 8.28 8.28 98 1012.9
20260501204353 17 89 8.0 12.9 0.48 8.15 8.15 98 1012.5
20260501203849 17 69 3.2 4.8 0.79 8.13 8.13 98 1012.7
20260501203347 17 69 11.3 16.1 1.98 8.08 8.08 98 1012.4
20260501202843 17 122 6.4 8.0 2.59 8.00 8.00 98 1011.5
20260501202341 17 114 3.2 3.2 2.34 7.77 7.77 98 1012.6
20260501201837 17 118 3.2 8.0 1.55 7.54 7.54 98 1012.4
20260501201334 17 103 6.4 8.0 0.79 7.37 7.37 98 1012.3
20260501200830 17 79 9.7 12.9 3.07 7.29 7.29 98 1011.8
20260501200328 17 70 8.0 9.7 7.44 7.24 7.24 98 1011.9
20260501195826 17 99 8.0 11.3 8.99 6.88 6.88 98 1012.4
20260501195321 17 114 4.8 8.0 3.66 5.92 5.92 97 1012.6
20260501194817 17 123 4.8 4.8 0.89 5.36 5.36 97 1013.2
20260501194314 17 96 1.6 1.6 0.66 5.28 5.28 97 1012.9
20260501193810 17 79 4.8 14.5 0.30 5.21 5.21 97 1011.7
20260501193309 17 98 12.9 22.5 0.61 5.18 5.18 97 1011.0
20260501192806 17 104 8.0 11.3 0.61 5.16 5.16 97 1011.4
20260501192306 17 93 12.9 16.1 0.30 5.11 5.11 97 1012.1
20260501191759 17 97 4.8 8.0 0.00 5.05 5.05 97 1012.7
20260501191256 17 45 3.2 3.2 0.00 5.05 5.05 97 1013.6
20260501190753 17 101 3.2 4.8 0.00 5.05 5.05 97 1013.6
20260501190249 17 117 6.4 8.0 0.00 5.05 5.05 97 1012.3
20260501185745 17 93 9.7 14.5 0.00 5.05 5.05 97 1012.7
20260501185240 17 95 0.0 1.6 0.00 5.05 5.05 97 1013.2
20260501184737 17 66 1.6 3.2 0.00 5.05 5.05 97 1013.3
20260501184232 17 87 8.0 9.7 0.18 5.05 5.05 97 1012.5
20260501183728 17 104 11.3 22.5 0.18 5.05 5.05 97 1012.4
20260501183226 17 94 6.4 12.9 0.00 5.03 5.03 97 1012.3